Zurück zum Katalog

CZ-4 DEB

AktivSSO
NORAD 20906·DEBRIS·🇨🇳 China

Gestartet Sep 3, 1990 von Taiyuan Satellite Launch Center

Loading…

Nächste Überflüge (nächste 24 Stunden)

TLE

AktuellSource: Space-Track

Epoche: Sep 14, 2026, 21:32 UTC

1 20906U 90081BS  26257.89768448  .00000039  00000-0  72088-4 0  9992
2 20906  99.0064 310.1333 0106020 157.9440  20.0085 13.81951752810927

Verfolge CZ-4 DEB in Echtzeit mit AllMySat

Download on the App Store